Haleyville, AL

10:41 PM CDT on April 30, 2017 (GMT -0500)
Haleyville

Weather History for K1M4 - November, 2011

Change the Weather History Date:

Thursday, November 17, 2011

  Actual Average (KJFX) Record (KJFX)
Temperature  
Mean Temperature 38 °F -  
Max Temperature 48 °F 63 °F 82 °F (2016)
Min Temperature 27 °F 36 °F 19 °F (1970)
Degree Days  
Heating Degree Days 28    
Moisture  
Dew Point 24 °F    
Average Humidity 58    
Maximum Humidity 84    
Minimum Humidity 31    
Precipitation  
Precipitation 0.00 in - - ()
Sea Level Pressure  
Sea Level Pressure 30.38 in    
Wind  
Wind Speed 9 mph (North)    
Max Wind Speed 13 mph    
Max Gust Speed 23 mph    
Visibility 10 miles    
Events Rain    
Averages and records for this station are not official NWS values.
T = Trace of Precipitation, MM = Missing Value Source: NWS Daily Summary

Daily Weather History Graph

Daily Weather History Graph

Search for Another Location

Airport or City:

Trip Planner

Search our weather history database for the weather conditions in past years. The results will help you decide how hot, cold, wet, or windy it might be!

Date:

Astronomy

Nov. 17, 2011 Rise Set
Actual Time 6:25 AM CST 4:45 PM CST
Civil Twilight 5:58 AM CST 5:11 PM CST
Nautical Twilight 5:27 AM CST 5:42 PM CST
Astronomical Twilight 4:58 AM CST 6:12 PM CST
Moon 10:59 PM CST (11/17) 11:38 AM CST (11/17)
Length of Visible Light 11h 13m
Length of Day
10h 20m
Waning Gibbous, 59% of the Moon is Illuminated
Nov 17
Waning Gibbous
Nov 18
Last Quarter
Nov 25
New
Dec 2
First Quarter
Dec 10
Full

Hourly Weather History & Observations

Time (CST) Temp. Windchill Dew Point Humidity Pressure Visibility Wind Dir Wind Speed Gust Speed Precip Events Conditions
12:04 AM 44.6 °F 38.4 °F 33.8 °F 66% 30.10 in 10.0 mi North 12.7 mph 21.9 mph N/A   Overcast
12:56 AM 41.9 °F 35.0 °F 32.9 °F 70% 30.23 in 10.0 mi NNW 12.7 mph 23.0 mph 0.00 in Rain Light Rain
1:56 AM 39.9 °F 32.9 °F 32.9 °F 76% 30.23 in 10.0 mi North 11.5 mph - 0.00 in   Mostly Cloudy
2:56 AM 39.9 °F 33.9 °F 31.1 °F 71% 30.24 in 10.0 mi North 9.2 mph - N/A   Mostly Cloudy
4:56 AM 36.9 °F 30.7 °F 27.1 °F 68% 30.29 in 10.0 mi NNW 8.1 mph - N/A   Clear
6:56 AM 34.9 °F 27.1 °F 25.2 °F 68% 30.35 in 10.0 mi North 10.4 mph - N/A   Clear
7:56 AM 37.9 °F 31.5 °F 25.2 °F 60% 30.39 in 10.0 mi North 9.2 mph - N/A   Clear
8:56 AM 41.0 °F 35.8 °F 24.1 °F 51% 30.40 in 10.0 mi North 8.1 mph 20.7 mph N/A   Clear
9:56 AM 43.0 °F 36.8 °F 19.0 °F 38% 30.42 in 10.0 mi North 11.5 mph 21.9 mph N/A   Clear
10:56 AM 45.9 °F 40.4 °F 18.1 °F 33% 30.43 in 10.0 mi North 11.5 mph - N/A   Clear
11:56 AM 47.8 °F - 20.1 °F 33% 30.42 in 10.0 mi NNW 11.5 mph - N/A   Clear
12:56 PM 48.9 °F - 20.1 °F 32% 30.41 in 10.0 mi North 9.2 mph - N/A   Clear
2:56 PM 48.9 °F - 20.1 °F 32% 30.41 in 10.0 mi NNE 10.4 mph - N/A   Clear
3:56 PM 47.8 °F - 18.1 °F 31% 30.42 in 10.0 mi North 6.9 mph - N/A   Clear
4:56 PM 43.0 °F 40.3 °F 20.1 °F 40% 30.43 in 10.0 mi North 4.6 mph - N/A   Clear
5:56 PM 38.8 °F 36.5 °F 20.1 °F 47% 30.43 in 10.0 mi North 3.5 mph - N/A   Clear
6:56 PM 34.9 °F - 23.0 °F 62% 30.43 in 10.0 mi Calm Calm - N/A   Clear
7:56 PM 32.0 °F - 26.1 °F 79% 30.45 in 10.0 mi Calm Calm - N/A   Clear
8:56 PM 29.1 °F 25.4 °F 24.1 °F 81% 30.45 in 10.0 mi NNE 3.5 mph - N/A   Clear
9:56 PM 28.0 °F - 23.0 °F 81% 30.46 in 10.0 mi Calm Calm - N/A   Clear
10:56 PM 27.1 °F - 23.0 °F 84% 30.45 in 10.0 mi Calm Calm - N/A   Clear
11:56 PM 27.1 °F - 22.1 °F 81% 30.47 in 10.0 mi Calm Calm - N/A   Clear